Date String (YYYY-MM-DD hh:mm:ss) UTC,Instrument flags,Ambient pressure (hPa),Sample flow (lpm),Bypass flow (lpm),Sample temperature (°C),Ambient temperature (°C),ASC tube jacket temperature (°C),LED temperature (°C),Box temperature (°C),Sample RH (%),Span deviation,Mass concentration (μg/m³),Mass concentration (μg/m³),Mass concentration (μg/m³)
DateTimeUTC,F1_M11,P_M11,Q1_M11,Q2_M11,T1_M11,T2_M11,T3_M11,T4_M11,T5_M11,U1_M11,ZSPAN_M11,X0_M11,X2_M11,X1_M11
2022-06-20 00:00:00,,0821.7,5.00,0.00,29.3,28.4,00.0,38.0,31.3,28.0,0000.0,0003.05,0001.45,0001.02
2022-06-20 00:01:00,,0821.6,5.00,0.00,29.3,28.4,00.0,38.0,31.3,27.7,0000.0,0003.10,0001.49,0001.03
2022-06-20 00:02:00,,0821.6,5.00,0.00,29.3,27.8,00.0,37.9,31.2,27.6,0000.0,0003.07,0001.49,0001.03
2022-06-20 00:03:00,,0821.5,4.99,0.00,29.2,27.1,00.0,37.9,31.0,27.6,0000.0,0003.18,0001.54,0001.03
2022-06-20 00:04:00,,0821.6,5.01,0.00,29.2,26.9,00.0,37.9,30.9,27.7,0000.0,0003.00,0001.55,0001.04
2022-06-20 00:05:00,,0821.5,5.01,0.00,29.1,27.0,00.0,37.9,30.9,27.8,0000.0,0002.84,0001.54,0001.04
2022-06-20 00:06:00,,0821.6,4.99,0.00,29.1,27.1,00.0,37.9,30.9,28.0,0000.0,0002.76,0001.51,0001.03
2022-06-20 00:07:00,,0821.5,5.01,0.00,29.1,27.3,00.0,37.9,31.0,28.5,0000.0,0002.44,0001.46,0001.03
2022-06-20 00:08:00,,0821.6,4.99,0.00,29.1,27.5,00.0,37.9,31.0,28.6,0000.0,0002.35,0001.44,0001.03
2022-06-20 00:09:00,,0821.5,4.99,0.00,29.1,27.7,00.0,37.9,31.1,29.1,0000.0,0003.02,0001.41,0001.03
2022-06-20 00:10:00,,0821.5,4.99,0.00,29.1,27.9,00.0,37.9,31.1,29.0,0000.0,0003.12,0001.39,0001.03
2022-06-20 00:11:00,,0821.5,5.00,0.00,29.2,28.0,00.0,37.9,31.2,28.9,0000.0,0003.06,0001.36,0001.03
2022-06-20 00:12:00,,0821.5,5.00,0.00,29.2,28.2,00.0,37.9,31.2,28.4,0000.0,0003.01,0001.35,0001.03
2022-06-20 00:13:00,,0821.6,5.00,0.00,29.2,28.3,00.0,38.0,31.3,28.0,0000.0,0003.03,0001.33,0001.04
2022-06-20 00:14:00,,0821.6,4.99,0.00,29.3,28.4,00.0,38.0,31.3,27.8,0000.0,0003.00,0001.30,0001.04
2022-06-20 00:15:00,,0821.6,5.00,0.00,29.3,28.2,00.0,38.0,31.3,28.1,0000.0,0002.96,0001.29,0001.04
2022-06-20 00:16:00,,0821.6,5.01,0.00,29.2,27.4,00.0,37.9,31.1,28.4,0000.0,0002.92,0001.28,0001.04
2022-06-20 00:17:00,,0821.6,5.01,0.00,29.2,27.0,00.0,37.9,30.9,28.6,0000.0,0002.91,0001.28,0001.05
2022-06-20 00:18:00,,0821.5,4.99,0.00,29.1,27.0,00.0,37.9,30.9,28.6,0000.0,0002.91,0001.27,0001.06
2022-06-20 00:19:00,,0821.6,5.00,0.00,29.1,27.1,00.0,37.9,30.9,28.5,0000.0,0003.02,0001.29,0001.07
2022-06-20 00:20:00,,0821.6,5.00,0.00,29.1,27.3,00.0,37.9,31.0,29.2,0000.0,0002.11,0001.29,0001.07
2022-06-20 00:21:00,,0821.6,5.00,0.00,29.1,27.5,00.0,37.9,31.0,29.5,0000.0,0002.00,0001.29,0001.08
2022-06-20 00:22:00,,0821.7,5.00,0.00,29.1,27.6,00.0,37.9,31.1,29.4,0000.0,0002.07,0001.33,0001.09
2022-06-20 00:23:00,,0821.7,4.99,0.00,29.1,27.8,00.0,37.9,31.1,29.3,0000.0,0002.13,0001.35,0001.09
2022-06-20 00:24:00,,0821.7,5.00,0.00,29.2,28.0,00.0,37.9,31.2,28.7,0000.0,0002.09,0001.36,0001.10
2022-06-20 00:25:00,,0821.8,5.00,0.00,29.2,28.2,00.0,37.9,31.2,28.7,0000.0,0002.09,0001.38,0001.11
2022-06-20 00:26:00,,0821.8,5.01,0.00,29.2,28.3,00.0,37.9,31.3,29.2,0000.0,0002.17,0001.42,0001.11
2022-06-20 00:27:00,,0821.8,5.00,0.00,29.3,28.4,00.0,38.0,31.3,29.6,0000.0,0002.35,0001.48,0001.13
2022-06-20 00:28:00,,0821.8,5.00,0.00,29.3,27.9,00.0,37.9,31.2,29.4,0000.0,0002.38,0001.48,0001.13
2022-06-20 00:29:00,,0821.8,5.01,0.00,29.2,27.2,00.0,37.9,31.0,29.4,0000.0,0002.44,0001.49,0001.12
2022-06-20 00:30:00,,0821.7,5.01,0.00,29.1,26.9,00.0,37.9,30.9,29.6,0000.0,0002.43,0001.49,0001.11
2022-06-20 00:31:00,,0821.7,4.99,0.00,29.1,26.9,00.0,37.9,30.9,29.8,0000.0,0002.47,0001.51,0001.12
2022-06-20 00:32:00,,0821.7,4.99,0.00,29.1,27.0,00.0,37.9,30.9,30.0,0000.0,0002.49,0001.54,0001.12
2022-06-20 00:33:00,,0821.7,5.01,0.00,29.1,27.2,00.0,37.9,30.9,30.0,0000.0,0002.42,0001.50,0001.11
2022-06-20 00:34:00,,0821.7,5.01,0.00,29.1,27.4,00.0,37.9,31.0,30.1,0000.0,0002.36,0001.48,0001.11
2022-06-20 00:35:00,,0821.7,5.00,0.00,29.1,27.6,00.0,37.9,31.0,30.3,0000.0,0002.30,0001.45,0001.10
2022-06-20 00:36:00,,0821.7,4.99,0.00,29.1,27.8,00.0,37.9,31.1,29.7,0000.0,0002.25,0001.44,0001.09
2022-06-20 00:37:00,,0821.7,5.00,0.00,29.1,28.0,00.0,37.9,31.1,29.6,0000.0,0002.34,0001.47,0001.09
2022-06-20 00:38:00,,0821.7,5.00,0.00,29.2,28.1,00.0,37.9,31.2,29.7,0000.0,0002.26,0001.41,0001.07
2022-06-20 00:39:00,,0821.7,5.00,0.00,29.2,28.3,00.0,37.9,31.3,29.8,0000.0,0002.20,0001.40,0001.06
2022-06-20 00:40:00,,0821.7,4.99,0.00,29.3,28.4,00.0,38.0,31.3,29.5,0000.0,0002.13,0001.38,0001.06
2022-06-20 00:41:00,,0821.7,4.99,0.00,29.3,28.2,00.0,38.0,31.3,29.3,0000.0,0001.98,0001.36,0001.06
2022-06-20 00:42:00,,0821.7,5.00,0.00,29.2,27.4,00.0,37.9,31.1,29.3,0000.0,0002.11,0001.34,0001.06
2022-06-20 00:43:00,,0821.7,5.01,0.00,29.2,26.9,00.0,37.9,30.9,29.2,0000.0,0002.12,0001.31,0001.06
2022-06-20 00:44:00,,0821.7,5.00,0.00,29.1,26.9,00.0,37.9,30.9,29.3,0000.0,0002.25,0001.34,0001.05
2022-06-20 00:45:00,,0821.7,4.99,0.00,29.1,27.0,00.0,37.8,30.9,29.2,0000.0,0002.51,0001.38,0001.05
2022-06-20 00:46:00,,0821.7,5.01,0.00,29.1,27.2,00.0,37.8,30.9,29.1,0000.0,0002.67,0001.42,0001.04
2022-06-20 00:47:00,,0821.7,4.99,0.00,29.1,27.4,00.0,37.8,31.0,29.0,0000.0,0002.73,0001.42,0001.04
2022-06-20 00:48:00,,0821.7,5.00,0.00,29.1,27.6,00.0,37.9,31.0,29.0,0000.0,0002.69,0001.41,0001.04
2022-06-20 00:49:00,,0821.7,5.00,0.00,29.1,27.8,00.0,37.9,31.1,29.0,0000.0,0002.63,0001.39,0001.03
2022-06-20 00:50:00,,0821.7,4.99,0.00,29.1,27.9,00.0,37.9,31.1,29.2,0000.0,0002.62,0001.39,0001.04
2022-06-20 00:51:00,,0821.7,5.00,0.00,29.2,28.1,00.0,37.9,31.2,29.2,0000.0,0002.62,0001.39,0001.04
2022-06-20 00:52:00,,0821.7,5.00,0.00,29.2,28.3,00.0,37.9,31.3,29.1,0000.0,0002.65,0001.41,0001.03
2022-06-20 00:53:00,,0821.7,5.01,0.00,29.2,28.4,00.0,38.0,31.3,29.1,0000.0,0002.57,0001.44,0001.03
2022-06-20 00:54:00,,0821.7,5.00,0.00,29.3,28.5,00.0,38.0,31.4,29.0,0000.0,0002.59,0001.44,0001.02
2022-06-20 00:55:00,,0821.7,5.00,0.00,29.3,28.1,00.0,38.0,31.3,29.0,0000.0,0002.51,0001.41,0001.02
2022-06-20 00:56:00,,0821.7,5.00,0.00,29.3,27.3,00.0,37.9,31.1,29.2,0000.0,0002.32,0001.40,0001.02
2022-06-20 00:57:00,,0821.7,5.00,0.00,29.2,26.9,00.0,37.9,30.9,29.1,0000.0,0002.18,0001.36,0001.02
2022-06-20 00:58:00,,0821.7,5.01,0.00,29.1,27.0,00.0,37.9,30.9,29.3,0000.0,0002.16,0001.36,0001.03
2022-06-20 00:59:00,,0821.7,5.00,0.00,29.1,27.1,00.0,37.9,30.9,29.5,0000.0,0002.21,0001.38,0001.03
